This demonstration page uses our WeatherBlox Daily Observations layout. Learn more.

40.92945, -100.16068

Hourly Observations for December 15, 2017

Temp ( °F °C ) Dew Point ( °F °C ) Humidity (%) Winds ( mph kmh ) Pressure ( in mb ) Visibility ( mi km ) Precip ( " mm )
12:15 am 00:15 Partly Cloudy 24 -4.2 21 -5.9 88 88 W 8 13 30.33 1027 10 16.09344 0 0
12:35 am 00:35 Clear 23 -4.8 20 -6.7 87 87 W 8 13 30.33 1027 10 16.09344 0 0
12:55 am 00:55 Clear 23 -5 19 -7.2 85 85 WSW 5 7 30.33 1027 10 16.09344 0 0
1:15 am 01:15 Clear 21 -6 17 -8.2 85 85 WSW 6 9 30.33 1027 10 16.09344 0 0
1:35 am 01:35 Clear 23 -5.2 19 -7.4 85 85 W 7 11 30.3 1026 10 16.09344 0 0
1:55 am 01:55 Clear 22 -5.6 18 -7.6 86 86 WSW 6 9 30.3 1026 10 16.09344 0 0
2:15 am 02:15 Clear 21 -5.9 18 -7.8 87 87 WSW 5 7 30.3 1026 10 16.09344 0 0
2:35 am 02:35 Clear 21 -5.9 18 -7.8 87 87 W 6 9 30.3 1026 10 16.09344 0 0
2:55 am 02:55 Clear 20 -6.5 17 -8.1 89 89 W 5 7 30.3 1026 10 16.09344 0 0
3:15 am 03:15 Clear 20 -6.6 18 -8 90 90 WNW 6 9 30.3 1026 10 16.09344 0 0
3:35 am 03:35 Clear 21 -6.3 18 -7.7 90 90 WNW 6 9 30.3 1026 10 16.09344 0 0
3:55 am 03:55 Clear 19 -7.5 15 -9.2 88 88 WNW 3 6 30.33 1027 10 16.09344 0 0
4:15 am 04:15 Clear 19 -7.4 17 -8.6 91 91 W 3 6 30.3 1026 10 16.09344 0 0
4:35 am 04:35 Clear 20 -6.4 18 -7.6 91 91 W 3 6 30.27 1025 10 16.09344 0 0
4:55 am 04:55 Clear 20 -6.5 17 -8.1 89 89 W 3 6 30.27 1025 10 16.09344 0 0
5:15 am 05:15 Clear 20 -6.5 18 -7.6 92 92 W 3 6 30.24 1024 10 16.09344 0 0
5:35 am 05:35 Clear 21 -6 19 -7.4 90 90 Calm 30.24 1024 10 16.09344 0 0
5:55 am 05:55 Clear 23 -5.2 19 -7.5 84 84 Calm 30.24 1024 10 16.09344 0 0
6:15 am 06:15 Clear 20 -6.8 16 -8.9 85 85 WSW 8 13 30.21 1023 10 16.09344 0 0
6:35 am 06:35 Clear 20 -6.9 16 -8.9 86 86 WSW 3 6 30.21 1023 10 16.09344 0 0
6:55 am 06:55 Clear 21 -6.2 17 -8.5 84 84 WSW 3 6 30.21 1023 10 16.09344 0 0
7:15 am 07:15 Clear 23 -5 18 -7.6 82 82 WSW 9 15 30.21 1023 10 16.09344 0 0
7:35 am 07:35 Clear 22 -5.3 18 -8 82 82 W 6 9 30.21 1023 10 16.09344 0 0
7:55 am 07:55 Clear 23 -5 18 -7.7 82 82 W 10 17 30.21 1023 10 16.09344 0 0
8:15 am 08:15 Sunny 23 -4.8 18 -7.7 80 80 W 7 11 30.18 1022 10 16.09344 0 0
8:35 am 08:35 Sunny 24 -4.7 18 -7.6 80 80 WSW 6 9 30.15 1021 10 16.09344 0 0
8:55 am 08:55 Sunny 25 -4 19 -7.1 79 79 WSW 8 13 30.15 1021 10 16.09344 0 0
9:15 am 09:15 Sunny 26 -3.4 20 -6.8 78 78 W 9 15 30.15 1021 10 16.09344 0 0
9:35 am 09:35 Sunny 28 -2.5 21 -6.2 76 76 W 9 15 30.15 1021 10 16.09344 0 0
9:55 am 09:55 Sunny 30 -1.2 22 -5.6 72 72 W 7 11 30.12 1020 10 16.09344 0 0
10:15 am 10:15 Sunny 32 0 22 -5.4 67 67 WSW 6 9 30.12 1020 10 16.09344 0 0
10:35 am 10:35 Sunny 35 1.7 22 -5.4 60 60 WSW 8 13 30.09 1019 10 16.09344 0 0
10:55 am 10:55 Sunny 37 3 23 -5 56 56 WSW 7 11 30.09 1019 10 16.09344 0 0
11:15 am 11:15 Sunny 40 4.5 23 -4.9 51 51 WSW 8 13 30.03 1017 10 16.09344 0 0
11:35 am 11:35 Sunny 43 6.1 23 -5.2 45 45 W 13 20 30.03 1017 10 16.09344 0 0
11:55 am 11:55 Sunny 45 7 22 -5.6 41 41 W 12 19 30 1016 10 16.09344 0 0
12:15 pm 12:15 Sunny 46 7.8 21 -5.9 38 38 W 14 22 29.97 1015 10 16.09344 0 0
12:35 pm 12:35 Sunny 46 7.9 21 -6.3 36 36 W 13 20 29.97 1015 10 16.09344 0 0
12:55 pm 12:55 Sunny 47 8.2 21 -6.3 35 35 WSW 10 17 29.94 1014 10 16.09344 0 0
1:15 pm 13:15 Sunny 47 8.5 20 -6.4 35 35 WSW 10 17 29.94 1014 10 16.09344 0 0
1:35 pm 13:35 Sunny 49 9.4 21 -6.3 33 33 WSW 12 19 29.88 1012 10 16.09344 0 0
1:55 pm 13:55 Sunny 51 10.6 21 -6.3 30 30 WSW 13 20 29.88 1012 10 16.09344 0 0
2:15 pm 14:15 Sunny 53 11.5 20 -6.5 28 28 W 13 20 29.88 1012 10 16.09344 0 0
2:35 pm 14:35 Sunny 54 12.3 19 -7.2 25 25 WSW 13 20 29.83 1010 10 16.09344 0 0
2:55 pm 14:55 Sunny 55 12.6 19 -7.5 24 24 WSW 14 22 29.83 1010 10 16.09344 0 0
3:15 pm 15:15 Sunny 55 12.7 18 -7.6 24 24 WSW 14 22 29.8 1009 10 16.09344 0 0
3:35 pm 15:35 Sunny 55 12.8 18 -7.7 23 23 SW 14 22 29.8 1009 10 16.09344 0 0
3:55 pm 15:55 Sunny 55 12.8 18 -8 23 23 SW 12 19 29.8 1009 10 16.09344 0 0
4:15 pm 16:15 Sunny 55 12.5 18 -7.9 24 24 SW 13 20 29.8 1009 10 16.09344 0 0
4:35 pm 16:35 Sunny 54 12.3 18 -8 24 24 SW 9 15 29.77 1008 10 16.09344 0 0
4:55 pm 16:55 Sunny 52 10.9 18 -8 26 26 WSW 7 11 29.8 1009 10 16.09344 0 0
5:15 pm 17:15 Clear 48 8.7 17 -8.2 30 30 SW 7 11 29.8 1009 10 16.09344 0 0
5:35 pm 17:35 Clear 47 8.4 17 -8.4 30 30 SW 6 9 29.8 1009 10 16.09344 0 0
5:55 pm 17:55 Clear 46 7.9 16 -8.8 30 30 SW 6 9 29.8 1009 10 16.09344 0 0
6:15 pm 18:15 Clear 45 7.1 16 -9.1 31 31 SW 8 13 29.83 1010 10 16.09344 0 0
6:35 pm 18:35 Clear 42 5.4 15 -9.3 34 34 SW 9 15 29.83 1010 10 16.09344 0 0
6:55 pm 18:55 Clear 44 6.6 15 -9.5 31 31 SSW 8 13 29.8 1009 10 16.09344 0 0
7:15 pm 19:15 Clear 43 5.9 15 -9.5 32 32 SW 9 15 29.8 1009 10 16.09344 0 0
7:35 pm 19:35 Clear 41 5.2 15 -9.6 34 34 SW 9 15 29.8 1009 10 16.09344 0 0
7:55 pm 19:55 Clear 44 6.7 15 -9.5 31 31 SSW 10 17 29.8 1009 10 16.09344 0 0
8:15 pm 20:15 Clear 43 6.2 15 -9.7 31 31 SSW 10 17 29.8 1009 10 16.09344 0 0
8:35 pm 20:35 Clear 42 5.8 14 -10 31 31 SW 7 11 29.8 1009 10 16.09344 0 0
8:55 pm 20:55 Clear 40 4.6 14 -10.2 34 34 WSW 3 6 29.8 1009 10 16.09344 0 0
9:15 pm 21:15 Clear 42 5.6 13 -10.6 30 30 Calm 29.8 1009 10 16.09344 0 0
9:35 pm 21:35 Clear 39 4.1 13 -10.5 34 34 W 3 6 29.83 1010 10 16.09344 0 0
9:55 pm 21:55 Clear 41 5.1 13 -10.6 31 31 WSW 5 7 29.8 1009 10 16.09344 0 0
10:15 pm 22:15 Clear 34 1.2 14 -9.8 44 44 W 3 6 29.85 1011 10 16.09344 0 0
10:35 pm 22:35 Clear 37 2.6 14 -10.2 39 39 Calm 29.8 1009 10 16.09344 0 0
10:55 pm 22:55 Clear 33 0.8 14 -10 45 45 NNW 3 6 29.83 1010 10 16.09344 0 0
11:15 pm 23:15 Clear 30 -0.9 15 -9.3 53 53 NNW 6 9 29.83 1010 10 16.09344 0 0
11:35 pm 23:35 Clear 29 -1.5 15 -9.3 56 56 NNW 5 7 29.83 1010 10 16.09344 0 0
11:55 pm 23:55 Clear 31 -0.4 15 -9.6 50 50 Calm 29.83 1010 10 16.09344 0 0

Powered by AerisWeather